Tracking 19125 objects as of 19-Apr-2018
HD Live streaming from Space Station
objects crossing your sky now

NAVSTAR 28 (USA 85)

Track NAVSTAR 28 (USA 85) now!
NAVSTAR 28 (USA 85) is classified as:


NORAD ID: 22231
Int'l Code: 1992-079A
Perigee: 21,159.0 km
Apogee: 21,344.1 km
Inclination: 55.2 °
Period: 761.5 minutes
Semi major axis: 27622 km
RCS: 3.981 m2 (large)
Launch date: November 22, 1992
Source: United States (US)
Launch site: AIR FORCE EASTERN TEST RANGE (AFETR)
PRN:
aabbcc
Your satellite tracking list
Your tracking list is empty




NASA's NSSDC Master Catalog

Two Line Element Set (TLE):
1 22231U 92079A   18108.75369213 +.00000021 +00000-0 +00000-0 0  9994
2 22231 055.2262 216.4210 0033504 302.8171 056.8768 01.89107096005766
Source of the keplerian elements: AFSPC